GORIZONT 28 [-]

Last updated on Aug. 14, 2020, 5:30 a.m. UTC

1 22880U 93069A   20226.01502602 -.00000070  00000-0  00000-0 0  9993
2 22880  14.8949   4.6601 0032712 109.5854 297.7416  0.99646971 97868
UTC
Height (km)
Latitude
Longitude
Inclination
Orbital Period
UTC large
Height (km)
Speed (km/s)
/
Latitude / Longitude
Inclination (degrees)
Orbital Period (minutes)
Azimuth
Elevation
Range (km)
Doppler Factor
iOS Compass Heading
iOS Angle

Next 30 passes for location: Hong Kong

Rise time Rise Azimuth (degrees) Set time Set Azimuth (degrees) Duration Max altitude (degrees)

No matching passes for this satellites